When you browse on this site, cookies collect data to enhance your experience and personalize the content and advertising you see.
Visit our Privacy Policy to learn more. By continuing to use the site, you agree to this use of cookies and data.
  • In United Kingdom
  • List of Countries
  • For 7 days
  • Water Temperature
  • Satellite Maps
  • Weather Map
  • Weather Widgets
  • user-avatar
    Login

    Hourly Weather Ganta

    Today, 20 July, Saturday

    Time Temperature Precipitation Wind Pressure Humidity
    00:00 +23°C° 2.4 mm 1 mps 725 mmHg 99%
    01:00 +23°C° 2.4 mm 1 mps 724 mmHg 99%
    02:00 +23°C° 2.4 mm 1 mps 723 mmHg 99%
    03:00 +23°C° 5 mm 1 mps 724 mmHg 99%
    04:00 +23°C° 5 mm 1 mps 724 mmHg 99%
    05:00 +23°C° 5 mm 1 mps 724 mmHg 99%
    06:00 +23°C° 1.9 mm 1 mps 725 mmHg 99%
    07:00 +23°C° 1.9 mm 1 mps 725 mmHg 99%
    08:00 +23°C° 1.9 mm 1 mps 726 mmHg 98%
    09:00 +23°C° 0.5 mm 1 mps 726 mmHg 98%
    10:00 +23°C° 0.5 mm 1 mps 726 mmHg 98%
    11:00 +24°C° 0.5 mm 1 mps 726 mmHg 98%
    12:00 +24°C° 0.4 mm 1 mps 725 mmHg 97%
    13:00 +24°C° 0.4 mm 1 mps 725 mmHg 97%
    14:00 +24°C° 0.4 mm 1 mps 724 mmHg 97%
    15:00 +24°C° 0.3 mm 1 mps 724 mmHg 97%
    16:00 +24°C° 0.3 mm 1 mps 724 mmHg 98%
    17:00 +23°C° 0.3 mm 1 mps 724 mmHg 98%
    18:00 +23°C° 0.1 mm 1 mps 724 mmHg 98%
    19:00 +23°C° 0.1 mm 1 mps 725 mmHg 99%
    20:00 +23°C° 0.1 mm 1 mps 725 mmHg 99%
    21:00 +23°C° 0 mm 1 mps 725 mmHg 99%
    22:00 +23°C° 0 mm 1 mps 725 mmHg 99%
    23:00 +21°C° 0 mm 0 mps 725 mmHg 99%

    Tomorrow, 21 July, Sunday

    Time Temperature Precipitation Wind Pressure Humidity
    00:00 +21°C° 0 mm 0 mps 725 mmHg 99%
    01:00 +21°C° 0 mm 0 mps 725 mmHg 99%
    02:00 +21°C° 0 mm 0 mps 724 mmHg 99%
    03:00 +21°C° 0.1 mm 0 mps 724 mmHg 99%
    04:00 +21°C° 0.1 mm 0 mps 725 mmHg 99%
    05:00 +21°C° 0.1 mm 0 mps 725 mmHg 99%
    06:00 +21°C° 0.1 mm 0 mps 725 mmHg 98%
    07:00 +21°C° 0.1 mm 0 mps 726 mmHg 97%
    08:00 +22°C° 0.1 mm 0 mps 726 mmHg 97%
    09:00 +23°C° 0.1 mm 0 mps 726 mmHg 90%
    10:00 +26°C° 0.1 mm 1 mps 726 mmHg 84%
    11:00 +27°C° 0.1 mm 1 mps 725 mmHg 78%
    12:00 +28°C° 0.1 mm 1 mps 725 mmHg 73%
    13:00 +29°C° 0.1 mm 1 mps 724 mmHg 69%
    14:00 +30°C° 0.1 mm 1 mps 724 mmHg 64%
    15:00 +29°C° 0.8 mm 1 mps 723 mmHg 73%
    16:00 +28°C° 0.8 mm 1 mps 723 mmHg 83%
    17:00 +26°C° 0.8 mm 1 mps 723 mmHg 93%
    18:00 +25°C° 1.3 mm 1 mps 724 mmHg 94%
    19:00 +24°C° 1.3 mm 1 mps 724 mmHg 96%
    20:00 +23°C° 1.3 mm 2 mps 724 mmHg 98%
    21:00 +23°C° 0.1 mm 1 mps 724 mmHg 98%
    22:00 +23°C° 0.1 mm 1 mps 725 mmHg 98%
    23:00 +23°C° 0.1 mm 1 mps 725 mmHg 99%

    Day after tomorrow, 22 July, Monday

    Time Temperature Precipitation Wind Pressure Humidity
    00:00 +23°C° 0.1 mm 1 mps 724 mmHg 99%
    01:00 +23°C° 0.1 mm 1 mps 724 mmHg 99%
    02:00 +23°C° 0.1 mm 1 mps 724 mmHg 99%
    03:00 +23°C° 0.6 mm 1 mps 724 mmHg 99%
    04:00 +23°C° 0.6 mm 1 mps 724 mmHg 99%
    05:00 +21°C° 0.6 mm 0 mps 724 mmHg 99%
    06:00 +23°C° 0.6 mm 1 mps 724 mmHg 98%
    07:00 +23°C° 0.6 mm 1 mps 725 mmHg 97%
    08:00 +24°C° 0.6 mm 1 mps 725 mmHg 97%
    09:00 +25°C° 1.3 mm 1 mps 725 mmHg 96%
    10:00 +25°C° 1.3 mm 1 mps 725 mmHg 95%
    11:00 +26°C° 1.3 mm 2 mps 725 mmHg 94%
    12:00 +26°C° 1.9 mm 2 mps 724 mmHg 93%
    13:00 +26°C° 1.9 mm 2 mps 723 mmHg 92%
    14:00 +27°C° 1.9 mm 2 mps 723 mmHg 91%
    15:00 +26°C° 1 mm 2 mps 723 mmHg 92%
    16:00 +26°C° 1 mm 2 mps 723 mmHg 93%
    17:00 +25°C° 1 mm 1 mps 723 mmHg 94%
    18:00 +25°C° 0.8 mm 1 mps 723 mmHg 95%
    19:00 +24°C° 0.8 mm 1 mps 724 mmHg 96%
    20:00 +23°C° 0.8 mm 1 mps 725 mmHg 98%
    21:00 +23°C° 0.3 mm 1 mps 725 mmHg 98%
    22:00 +23°C° 0.3 mm 1 mps 725 mmHg 98%
    23:00 +23°C° 0.3 mm 1 mps 725 mmHg 99%

    23 July, Tuesday

    Time Temperature Precipitation Wind Pressure Humidity
    00:00 +23°C° 0.2 mm 1 mps 725 mmHg 99%
    01:00 +22°C° 0.2 mm 1 mps 724 mmHg 99%
    02:00 +22°C° 0.2 mm 1 mps 724 mmHg 99%
    03:00 +22°C° 0.1 mm 1 mps 724 mmHg 99%
    04:00 +22°C° 0.1 mm 1 mps 724 mmHg 99%
    05:00 +22°C° 0.1 mm 1 mps 724 mmHg 99%
    06:00 +23°C° 0.4 mm 1 mps 724 mmHg 99%
    07:00 +23°C° 0.4 mm 1 mps 725 mmHg 99%
    08:00 +23°C° 0.4 mm 1 mps 725 mmHg 99%
    09:00 +23°C° 0.3 mm 1 mps 725 mmHg 98%
    10:00 +23°C° 0.3 mm 1 mps 725 mmHg 98%
    11:00 +23°C° 0.3 mm 1 mps 725 mmHg 97%
    12:00 +24°C° 0.1 mm 1 mps 724 mmHg 94%
    13:00 +25°C° 0.1 mm 1 mps 724 mmHg 90%
    14:00 +26°C° 0.1 mm 1 mps 723 mmHg 86%
    15:00 +26°C° 0.4 mm 1 mps 723 mmHg 87%
    16:00 +26°C° 0.4 mm 1 mps 723 mmHg 88%
    17:00 +25°C° 0.4 mm 1 mps 723 mmHg 90%
    18:00 +25°C° 0.3 mm 1 mps 723 mmHg 92%
    19:00 +24°C° 0.3 mm 1 mps 724 mmHg 95%
    20:00 +23°C° 0.3 mm 1 mps 724 mmHg 98%
    21:00 +23°C° 0.2 mm 1 mps 724 mmHg 98%
    22:00 +22°C° 0.2 mm 1 mps 724 mmHg 98%
    23:00 +22°C° 0.2 mm 1 mps 725 mmHg 98%

    24 July, Wednesday

    Time Temperature Precipitation Wind Pressure Humidity
    00:00 +22°C° 0 mm 1 mps 724 mmHg 98%
    01:00 +22°C° 0 mm 1 mps 724 mmHg 98%
    02:00 +21°C° 0 mm 1 mps 724 mmHg 98%
    03:00 +21°C° 0 mm 1 mps 724 mmHg 98%
    04:00 +19°C° 0 mm 0 mps 724 mmHg 99%
    05:00 +19°C° 0 mm 0 mps 724 mmHg 99%
    06:00 +20°C° 0 mm 0 mps 725 mmHg 96%
    07:00 +20°C° 0 mm 0 mps 725 mmHg 94%
    08:00 +21°C° 0 mm 0 mps 726 mmHg 92%
    09:00 +22°C° 0.1 mm 0 mps 726 mmHg 88%
    10:00 +25°C° 0.1 mm 1 mps 725 mmHg 85%
    11:00 +26°C° 0.1 mm 1 mps 725 mmHg 81%
    12:00 +26°C° 0.9 mm 1 mps 725 mmHg 83%
    13:00 +26°C° 0.9 mm 1 mps 724 mmHg 85%
    14:00 +26°C° 0.9 mm 1 mps 723 mmHg 87%
    15:00 +26°C° 0.5 mm 1 mps 723 mmHg 88%
    16:00 +26°C° 0.5 mm 1 mps 723 mmHg 89%
    17:00 +24°C° 0.5 mm 0 mps 723 mmHg 90%
    18:00 +23°C° 0.2 mm 0 mps 724 mmHg 92%
    19:00 +22°C° 0.2 mm 0 mps 724 mmHg 95%
    20:00 +20°C° 0.2 mm 0 mps 725 mmHg 98%
    21:00 +22°C° 0 mm 1 mps 725 mmHg 98%
    22:00 +22°C° 0 mm 1 mps 725 mmHg 98%
    23:00 +22°C° 0 mm 1 mps 725 mmHg 99%

    25 July, Thursday

    Time Temperature Precipitation Wind Pressure Humidity
    00:00 +22°C° 0 mm 1 mps 725 mmHg 99%
    01:00 +21°C° 0 mm 1 mps 725 mmHg 99%
    02:00 +21°C° 0 mm 1 mps 724 mmHg 99%
    03:00 +21°C° 0 mm 1 mps 724 mmHg 98%
    04:00 +21°C° 0 mm 1 mps 724 mmHg 98%
    05:00 +21°C° 0 mm 1 mps 725 mmHg 98%
    06:00 +21°C° 0 mm 1 mps 725 mmHg 96%
    07:00 +22°C° 0 mm 1 mps 725 mmHg 94%
    08:00 +23°C° 0 mm 1 mps 726 mmHg 92%
    09:00 +24°C° 0 mm 1 mps 725 mmHg 87%
    10:00 +25°C° 0 mm 1 mps 725 mmHg 82%
    11:00 +23°C° 0 mm 0 mps 725 mmHg 77%
    12:00 +24°C° 0 mm 0 mps 725 mmHg 75%
    13:00 +26°C° 0 mm 1 mps 724 mmHg 74%
    14:00 +27°C° 0 mm 1 mps 724 mmHg 73%
    15:00 +27°C° 0 mm 1 mps 723 mmHg 76%
    16:00 +26°C° 0 mm 1 mps 723 mmHg 79%
    17:00 +26°C° 0 mm 1 mps 723 mmHg 82%
    18:00 +23°C° 0 mm 0 mps 724 mmHg 85%
    19:00 +22°C° 0 mm 0 mps 724 mmHg 88%
    20:00 +21°C° 0 mm 0 mps 725 mmHg 91%
    21:00 +21°C° 0 mm 0 mps 725 mmHg 92%
    22:00 +23°C° 0 mm 1 mps 725 mmHg 94%
    23:00 +23°C° 0 mm 1 mps 725 mmHg 95%
    Show more